[[{"header":{"parameterUnit":"m.s-1","parameterCategory":1,"la1":30.2991,"la2":30.254,"lo1":-89.0895,"lo2":-89.0444,"dx":0.0017,"dy":0.0017,"nx":28,"ny":28,"refTime":"2022-12-15T09:00:00:Z","depth":0,"parameterNumber":2,"parameterNumberName":"U-component_of_WINDS"},"data":[0,0,0,0,0,0,0,0,0,0,0,0,0,0,0,0,0,0,0,0,0,0,0,0,0,0,0,0,0,0,0,0,0,0,0,0,0,0,0,0,0,0,0,0,0,0,0,0,0,0,0,0,0,0,0,0,0,0,4.054,4.0541,0,4.0643,4.0644,4.0645,4.0599,4.0596,4.0594,4.0592,4.0697,4.0702,4.0707,0,0,0,0,0,0,0,0,0,0,0,0,0,4.0303,4.0308,4.0539,4.0541,4.0542,4.0643,4.0644,4.0645,4.0599,4.0596,4.0593,4.059,4.0695,4.0701,4.0708,0,0,0,0,0,0,0,0,0,0,0,0,0,4.0406,4.031,4.0539,4.0531,4.0532,4.0642,4.0644,4.0646,4.06,4.0596,4.0592,4.0589,4.0693,4.0701,4.0708,4.0833,0,0,4.0732,4.0736,0,0,0,0,0,0,0,0,4.0401,4.0415,4.0531,4.0532,4.0533,4.0604,4.0599,4.0709,4.0601,4.0574,4.0591,4.0587,4.0669,4.0679,4.0706,4.0838,4.0842,4.0733,4.0738,4.0741,4.0743,0,0,0,0,0,0,0,4.0393,4.041,4.058,4.0533,4.0534,4.0523,4.0533,4.062,4.0642,4.0576,4.0573,4.0586,4.0669,4.0699,4.0709,4.0844,4.0733,4.074,4.0744,4.0747,4.1084,4.1089,0,0,0,0,0,0,4.0386,4.0405,4.0577,4.0583,4.0456,4.053,4.0542,4.0585,4.0641,4.0646,4.0589,4.0583,4.0688,4.07,4.0712,4.0862,4.0741,4.0748,4.0753,4.108,4.1085,4.109,0,0,0,0,0,0,4.0381,4.0402,4.0573,4.0493,4.0514,4.0538,4.0587,4.0589,4.0619,4.0651,4.0654,4.0616,4.0685,4.0701,4.0804,4.0865,4.0752,4.0759,4.1075,4.1082,4.1088,4.1164,0,0,0,0,0,0,4.0375,4.0401,4.0448,4.0495,4.0519,4.0663,4.0591,4.0594,4.0633,4.0626,4.0677,4.0681,4.0683,4.0792,4.0811,4.0874,4.0765,4.107,4.1078,4.1086,4.1156,4.1172,4.1186,0,0,0,0,0,4.0367,4.0465,4.0451,4.0472,4.0578,4.0666,4.068,4.068,4.0638,4.0686,4.0706,4.068,4.0856,4.0803,4.0824,4.089,4.1066,4.1076,4.1085,4.1149,4.1169,4.1185,0,0,0,0,0,0,4.0424,4.0471,4.0455,4.0572,4.0615,4.0658,4.0719,4.0701,4.0757,4.0749,4.0747,4.0759,4.0865,4.0888,4.0829,4.1014,4.0954,4.0969,4.0996,4.1015,4.1029,4.1022,4.0771,0,0,0,0,0,4.045,4.0518,4.0555,4.0654,4.0677,4.0694,4.0733,4.0729,4.0774,4.0793,4.082,4.0865,4.0931,4.0974,4.1036,4.1159,4.117,4.1215,4.123,4.1242,4.1254,4.1322,4.1343,4.1122,4.1122,4.1121,0,0,4.0505,4.0539,4.0582,4.0666,4.07,4.077,4.071,4.0787,4.0839,4.0804,4.0903,4.0925,4.0975,4.1089,4.114,4.1111,4.1318,4.1254,4.1264,4.127,4.1334,4.1355,4.1374,4.1128,4.1127,4.1126,0,0,4.0641,4.0673,4.076,4.0795,4.0847,4.0858,4.0879,4.0925,4.0939,4.1038,4.1014,4.1076,4.1189,4.1226,4.1259,4.1412,4.139,4.1432,4.151,4.1576,4.1594,4.1609,4.1664,4.1684,4.1444,4.1444,4.1445,0,4.0703,4.0807,4.0806,4.0886,4.0924,4.0897,4.0985,4.1019,4.1088,4.1116,4.1082,4.1224,4.1256,4.1378,4.1416,4.1444,4.1468,4.1426,4.1591,4.1607,4.1621,4.1674,4.1695,4.1449,4.1449,4.1448,4.1448,0,4.0881,4.0954,4.1018,4.1087,4.1132,4.1215,4.1228,4.1274,4.1267,4.1282,4.1384,4.1422,4.1492,4.152,4.1514,4.1643,4.1623,4.1591,4.153,4.1647,4.1697,4.1717,4.1456,4.1454,4.1453,4.1452,0,0,4.1055,4.1123,4.1146,4.1178,4.1234,4.129,4.1373,4.1442,4.1482,4.1531,4.1601,4.1698,4.1669,4.1707,4.1705,4.1763,4.1883,4.1724,4.1725,4.1752,4.2028,4.2052,4.2075,4.1869,4.1872,4.1875,4.2024,0,4.1195,4.134,4.1342,4.1475,4.1544,4.1519,4.1591,4.1634,4.1651,4.1711,4.173,4.1799,4.1754,4.1778,4.1834,4.1856,4.1938,4.1845,4.1934,4.1937,4.1922,4.2101,4.2126,4.2265,4.2043,4.2046,4.2049,0,4.1378,4.1434,4.1574,4.1622,4.165,4.1715,4.1779,4.1837,4.1885,4.1893,4.1937,4.1927,4.2012,4.1949,4.2067,4.2004,4.204,4.2057,4.2062,4.207,4.2,4.2114,4.2309,4.2329,4.2079,4.2076,4.2074,0,4.1492,4.1602,4.17,4.1728,4.1785,4.1832,4.1858,4.1902,4.1944,4.2,4.2027,4.2092,4.2128,4.2179,4.2187,4.214,4.2305,4.2243,4.2315,4.2315,4.235,4.2348,4.2554,4.2374,4.2374,4.2373,4.2373,0,4.1648,4.1735,4.1752,4.1813,4.191,4.1912,4.2008,4.2031,4.2071,4.2136,4.2119,4.218,4.2187,4.225,4.2257,4.2354,4.237,4.238,4.238,4.2381,4.238,4.2405,4.2396,4.2379,4.2378,4.2376,4.2376,0,4.1792,4.1806,4.1912,4.1959,4.1972,4.2042,4.2082,4.214,4.2155,4.2238,4.2258,4.2282,4.2356,4.2369,4.2456,4.2461,4.2577,4.2568,4.2561,4.256,4.2632,4.2625,4.286,4.2892,4.2691,4.2693,4.2695,0,4.189,4.1957,4.2011,4.2053,4.2082,4.215,4.2193,4.2198,4.2243,4.2304,4.2356,4.2428,4.2486,4.2606,4.2632,4.2699,4.2692,4.277,4.2701,4.2701,4.2693,4.2689,4.2697,4.2782,4.2785,4.2786,4.2788,0,4.2065,4.2069,4.2131,4.2197,4.2248,4.23,4.2349,4.2385,4.2397,4.2449,4.2524,4.257,4.266,4.2732,4.2799,4.2826,4.281,4.2809,4.283,4.2831,4.2825,4.283,4.2597,4.2804,4.2802,4.2801,4.28,4.2799,4.2189,4.2248,4.2295,4.2365,4.2403,4.2449,4.2507,4.253,4.2593,4.2667,4.2666,4.275,4.2798,4.2886,4.2918,4.2984,4.2959,4.2988,4.2996,4.3003,4.301,4.2814,4.2996,4.2996,4.2995,4.2995,4.2995,0,4.2363,4.2393,4.2458,4.2527,4.2583,4.2562,4.2616,4.2664,4.2737,4.2784,4.2842,4.293,4.3,4.3032,4.3102,4.3149,4.3143,4.3167,4.3164,4.3171,4.3028,4.3004,4.3171,4.3171,4.3171,4.3171,4.3171,4.3171,4.246,4.2558,4.2569,4.2686,4.2715,4.2796,4.2829,4.2872,4.2909,4.3008,4.3067,4.3087,4.3129,4.3201,4.3266,4.3273,4.33,4.3328,4.3332,4.3198,4.318,4.3163,4.3141,4.3334,4.3334,4.3469,4.3471,4.3472]},{"header":{"parameterUnit":"m.s-1","parameterCategory":1,"la1":30.2991,"la2":30.254,"lo1":-89.0895,"lo2":-89.0444,"dx":0.0017,"dy":0.0017,"nx":28,"ny":28,"refTime":"2022-12-15T09:00:00:Z","depth":0,"parameterNumber":3,"parameterNumberName":"V-component_of_WINDS"},"data":[0,0,0,0,0,0,0,0,0,0,0,0,0,0,0,0,0,0,0,0,0,0,0,0,0,0,0,0,0,0,0,0,0,0,0,0,0,0,0,0,0,0,0,0,0,0,0,0,0,0,0,0,0,0,0,0,0,0,-5.2876,-5.2878,0,-5.311,-5.3112,-5.3115,-5.3106,-5.3103,-5.31,-5.3097,-5.3338,-5.3347,-5.3356,0,0,0,0,0,0,0,0,0,0,0,0,0,-5.2424,-5.2433,-5.2876,-5.2879,-5.2882,-5.3109,-5.3112,-5.3116,-5.3107,-5.3103,-5.3099,-5.3095,-5.3335,-5.3346,-5.3357,0,0,0,0,0,0,0,0,0,0,0,0,0,-5.2636,-5.2435,-5.2875,-5.2905,-5.291,-5.3108,-5.3112,-5.3116,-5.3108,-5.3103,-5.3098,-5.3093,-5.3331,-5.3345,-5.3359,-5.3544,0,0,-5.3402,-5.3408,0,0,0,0,0,0,0,0,-5.2624,-5.2652,-5.2897,-5.2903,-5.2909,-5.3074,-5.3042,-5.326,-5.3109,-5.3033,-5.3097,-5.3091,-5.3254,-5.3274,-5.3329,-5.3555,-5.3566,-5.3403,-5.3412,-5.3418,-5.3422,0,0,0,0,0,0,0,-5.2609,-5.2642,-5.2968,-5.2901,-5.2908,-5.2907,-5.2932,-5.3083,-5.3168,-5.3039,-5.3039,-5.3066,-5.3256,-5.3315,-5.3334,-5.3569,-5.3403,-5.3415,-5.3424,-5.343,-5.3961,-5.3967,0,0,0,0,0,0,-5.2588,-5.263,-5.2961,-5.2975,-5.2751,-5.2919,-5.2947,-5.3026,-5.3166,-5.3183,-5.307,-5.3065,-5.3293,-5.3318,-5.3343,-5.357,-5.3418,-5.3431,-5.3439,-5.3956,-5.3963,-5.3969,0,0,0,0,0,0,-5.2578,-5.2617,-5.2951,-5.2803,-5.2845,-5.2932,-5.3021,-5.3033,-5.3092,-5.319,-5.3205,-5.3115,-5.329,-5.3323,-5.3494,-5.3578,-5.3437,-5.345,-5.3949,-5.3958,-5.3966,-5.4026,0,0,0,0,0,0,-5.2565,-5.2614,-5.2685,-5.2804,-5.2853,-5.3099,-5.3026,-5.3041,-5.3116,-5.3112,-5.3236,-5.3252,-5.3289,-5.3473,-5.3508,-5.3595,-5.3461,-5.3942,-5.3953,-5.3963,-5.4017,-5.4035,-5.4051,0,0,0,0,0,-5.2549,-5.2692,-5.2688,-5.2728,-5.2943,-5.3103,-5.3131,-5.3171,-5.3123,-5.3195,-5.3259,-5.3248,-5.3563,-5.3491,-5.353,-5.3623,-5.3937,-5.395,-5.3962,-5.4009,-5.4032,-5.4051,0,0,0,0,0,0,-5.2581,-5.2708,-5.2705,-5.2891,-5.2987,-5.3102,-5.3194,-5.3193,-5.3304,-5.3296,-5.334,-5.3369,-5.3541,-5.3599,-5.3516,-5.3811,-5.3744,-5.3765,-5.3766,-5.3789,-5.3805,-5.3788,-5.3473,0,0,0,0,0,-5.2609,-5.2728,-5.2833,-5.2987,-5.3035,-5.3107,-5.3178,-5.32,-5.3301,-5.3341,-5.3417,-5.3515,-5.3637,-5.3716,-5.3833,-5.4025,-5.4053,-5.4108,-5.4125,-5.4139,-5.4157,-5.4265,-5.4291,-5.401,-5.401,-5.401,0,0,-5.2669,-5.2754,-5.2826,-5.2996,-5.3072,-5.3195,-5.314,-5.3272,-5.3364,-5.3361,-5.3528,-5.3587,-5.37,-5.3883,-5.3967,-5.3937,-5.4241,-5.4155,-5.4165,-5.4176,-5.428,-5.4307,-5.433,-5.4019,-5.4017,-5.4016,0,0,-5.2842,-5.2918,-5.3055,-5.3133,-5.3249,-5.3295,-5.3328,-5.3444,-5.3483,-5.3651,-5.3652,-5.3762,-5.397,-5.4051,-5.4119,-5.4324,-5.4319,-5.4361,-5.4451,-5.4555,-5.4577,-5.4597,-5.4671,-5.4697,-5.4378,-5.4378,-5.4379,0,-5.2903,-5.3087,-5.3125,-5.3259,-5.3334,-5.3336,-5.3477,-5.355,-5.3699,-5.3751,-5.3715,-5.3977,-5.4053,-5.4256,-5.4306,-5.4361,-5.4401,-5.4347,-5.4571,-5.4591,-5.461,-5.4682,-5.4709,-5.4383,-5.4382,-5.4382,-5.4381,0,-5.3156,-5.3284,-5.3381,-5.3525,-5.3611,-5.3747,-5.3807,-5.3889,-5.3905,-5.3955,-5.4127,-5.4219,-5.4355,-5.4405,-5.4421,-5.4611,-5.4588,-5.4561,-5.4495,-5.4641,-5.4709,-5.4736,-5.4389,-5.4388,-5.4386,-5.4385,0,0,-5.3356,-5.3519,-5.3554,-5.3619,-5.3748,-5.3848,-5.3985,-5.4118,-5.4189,-5.4291,-5.4408,-5.4584,-5.456,-5.4638,-5.4663,-5.4754,-5.4912,-5.4716,-5.472,-5.4751,-5.5129,-5.5149,-5.518,-5.4909,-5.4915,-5.4919,-5.512,0,-5.3542,-5.3784,-5.3823,-5.4036,-5.4155,-5.416,-5.4279,-5.4371,-5.4423,-5.4532,-5.4589,-5.4714,-5.4672,-5.4719,-5.481,-5.4874,-5.4989,-5.486,-5.5019,-5.5025,-5.4992,-5.5215,-5.5237,-5.5422,-5.5146,-5.5151,-5.5154,0,-5.3793,-5.3902,-5.4126,-5.424,-5.4291,-5.4398,-5.4523,-5.4628,-5.4733,-5.4764,-5.4852,-5.4866,-5.5009,-5.4937,-5.5135,-5.5047,-5.5114,-5.5156,-5.5164,-5.5181,-5.5099,-5.5239,-5.5482,-5.551,-5.5196,-5.5193,-5.519,0,-5.3917,-5.412,-5.4281,-5.4336,-5.4473,-5.4548,-5.4608,-5.4709,-5.4786,-5.4897,-5.4948,-5.5073,-5.5142,-5.524,-5.5288,-5.5231,-5.5484,-5.5415,-5.5515,-5.5514,-5.5569,-5.5565,-5.5826,-5.5611,-5.561,-5.561,-5.5609,0,-5.4122,-5.4259,-5.4338,-5.4437,-5.4592,-5.4636,-5.4788,-5.4847,-5.4936,-5.5048,-5.5059,-5.5164,-5.5221,-5.5335,-5.5374,-5.5533,-5.5564,-5.5594,-5.5603,-5.5593,-5.559,-5.5639,-5.5628,-5.5617,-5.5616,-5.5614,-5.5613,0,-5.4287,-5.4345,-5.4521,-5.4635,-5.4667,-5.4776,-5.4875,-5.4972,-5.5023,-5.5164,-5.52,-5.528,-5.5414,-5.5472,-5.5637,-5.5664,-5.5846,-5.5845,-5.5811,-5.5814,-5.5911,-5.5901,-5.6214,-5.6258,-5.6012,-5.6014,-5.6016,0,-5.4414,-5.452,-5.4646,-5.4721,-5.4784,-5.4904,-5.4984,-5.5032,-5.5114,-5.5243,-5.5325,-5.5459,-5.5569,-5.5784,-5.5858,-5.5984,-5.5987,-5.6088,-5.6006,-5.5994,-5.599,-5.5984,-5.5995,-5.6103,-5.6105,-5.6107,-5.6109,0,-5.4634,-5.4658,-5.4772,-5.4897,-5.4991,-5.5092,-5.519,-5.5251,-5.5315,-5.5407,-5.5544,-5.563,-5.5799,-5.5932,-5.6064,-5.6127,-5.613,-5.6134,-5.6164,-5.6156,-5.6132,-5.6148,-5.5852,-5.6127,-5.6125,-5.6124,-5.6123,-5.6122,-5.4786,-5.488,-5.4984,-5.5111,-5.519,-5.5282,-5.5379,-5.5442,-5.5557,-5.5698,-5.5719,-5.5866,-5.597,-5.6147,-5.6216,-5.6332,-5.6307,-5.635,-5.6361,-5.6371,-5.6378,-5.6113,-5.6356,-5.6355,-5.6355,-5.6355,-5.6354,0,-5.5008,-5.5074,-5.5191,-5.5328,-5.5428,-5.5421,-5.553,-5.5614,-5.5743,-5.584,-5.5948,-5.6106,-5.6236,-5.6321,-5.6452,-5.6529,-5.6534,-5.6562,-5.6558,-5.6573,-5.6392,-5.6354,-5.6557,-5.6556,-5.6556,-5.6556,-5.6556,-5.6556,-5.5135,-5.5295,-5.5331,-5.5531,-5.5598,-5.5741,-5.5804,-5.589,-5.5967,-5.6143,-5.6251,-5.6305,-5.6398,-5.6536,-5.6656,-5.6677,-5.6726,-5.6756,-5.6776,-5.6606,-5.6585,-5.6565,-5.6529,-5.6766,-5.6766,-5.6947,-5.6949,-5.695]}]]